| time (UTC) | temp F | wind direction | speed MPH | gust MPH | rain 1hr in | rain 24hr in | rain mn in | humidity % | barometer mb |
| 20260504034155 | 53 | 231 | 6.0 | 6.0 | 0.00 | 0.04 | 0.04 | 55 | 1007.5 |
| 20260504033653 | 53 | 118 | 6.0 | 8.0 | 0.00 | 0.04 | 0.04 | 55 | 1007.8 |
| 20260504033150 | 53 | 139 | 3.0 | 5.0 | 0.00 | 0.04 | 0.04 | 56 | 1007.6 |
| 20260504032647 | 53 | 127 | 4.0 | 5.0 | 0.00 | 0.04 | 0.04 | 57 | 1007.7 |
| 20260504032144 | 53 | 113 | 4.0 | 5.0 | 0.00 | 0.04 | 0.04 | 57 | 1007.6 |
| 20260504031641 | 53 | 243 | 9.0 | 10.0 | 0.00 | 0.04 | 0.04 | 57 | 1007.7 |
| 20260504031137 | 52 | 178 | 2.0 | 8.0 | 0.00 | 0.04 | 0.04 | 58 | 1007.7 |
| 20260504030634 | 51 | 207 | 5.0 | 5.0 | 0.00 | 0.04 | 0.04 | 59 | 1008.0 |
| 20260504030131 | 51 | 123 | 4.0 | 5.0 | 0.00 | 0.04 | 0.04 | 60 | 1007.9 |
| 20260504025628 | 51 | 110 | 4.0 | 5.0 | 0.00 | 0.04 | 0.04 | 62 | 1007.9 |
| 20260504025125 | 50 | 106 | 2.0 | 4.0 | 0.00 | 0.04 | 0.04 | 63 | 1008.1 |
| 20260504024622 | 50 | 124 | 4.0 | 4.0 | 0.00 | 0.04 | 0.04 | 64 | 1007.9 |
| 20260504024118 | 50 | 114 | 3.0 | 5.0 | 0.00 | 0.04 | 0.04 | 64 | 1008.0 |
| 20260504023615 | 51 | 103 | 4.0 | 4.0 | 0.00 | 0.04 | 0.04 | 66 | 1008.1 |
| 20260504023111 | 51 | 131 | 3.0 | 4.0 | 0.00 | 0.04 | 0.04 | 65 | 1008.2 |
| 20260504022608 | 51 | 116 | 4.0 | 5.0 | 0.00 | 0.04 | 0.04 | 66 | 1008.1 |
| 20260504022103 | 51 | 115 | 4.0 | 4.0 | 0.00 | 0.04 | 0.04 | 67 | 1008.2 |
| 20260504021602 | 50 | 118 | 4.0 | 5.0 | 0.00 | 0.04 | 0.04 | 69 | 1008.2 |
| 20260504021058 | 50 | 125 | 2.0 | 4.0 | 0.00 | 0.04 | 0.04 | 73 | 1008.2 |
| 20260504020555 | 50 | 109 | 3.0 | 4.0 | 0.00 | 0.04 | 0.04 | 75 | 1008.3 |
| 20260504020051 | 49 | 100 | 2.0 | 5.0 | 0.00 | 0.04 | 0.04 | 77 | 1008.2 |
| 20260504015548 | 49 | 120 | 3.0 | 4.0 | 0.00 | 0.04 | 0.04 | 81 | 1008.2 |
| 20260504015044 | 49 | 124 | 3.0 | 4.0 | 0.00 | 0.04 | 0.04 | 84 | 1008.2 |
| 20260504014540 | 49 | 127 | 3.0 | 4.0 | 0.00 | 0.04 | 0.04 | 86 | 1008.5 |
| 20260504014037 | 49 | 129 | 4.0 | 4.0 | 0.00 | 0.04 | 0.04 | 88 | 1008.3 |
| 20260504013535 | 48 | 118 | 4.0 | 4.0 | 0.00 | 0.04 | 0.04 | 89 | 1008.4 |
| 20260504013032 | 48 | 122 | 4.0 | 5.0 | 0.00 | 0.04 | 0.04 | 90 | 1008.4 |
| 20260504012529 | 48 | 121 | 3.0 | 4.0 | 0.00 | 0.04 | 0.04 | 91 | 1008.4 |
| 20260504012027 | 48 | 105 | 4.0 | 4.0 | 0.00 | 0.04 | 0.04 | 92 | 1008.5 |
| 20260504011523 | 48 | 111 | 2.0 | 3.0 | 0.00 | 0.04 | 0.04 | 92 | 1008.4 |
| 20260504011020 | 48 | 109 | 2.0 | 3.0 | 0.00 | 0.04 | 0.04 | 92 | 1008.4 |
| 20260504010515 | 48 | 120 | 3.0 | 4.0 | 0.00 | 0.04 | 0.04 | 92 | 1008.3 |
| 20260504010011 | 48 | 104 | 2.0 | 4.0 | 0.00 | 0.04 | 0.04 | 92 | 1008.4 |
| 20260504005508 | 48 | 99 | 2.0 | 3.0 | 0.00 | 0.04 | 0.04 | 91 | 1008.7 |
| 20260504005006 | 49 | 132 | 2.0 | 4.0 | 0.00 | 0.04 | 0.04 | 91 | 1008.8 |
| 20260504004504 | 49 | 102 | 2.0 | 3.0 | 0.00 | 0.04 | 0.04 | 90 | 1008.6 |
| 20260504004000 | 49 | 126 | 3.0 | 4.0 | 0.00 | 0.04 | 0.04 | 90 | 1008.6 |
| 20260504003456 | 49 | 125 | 3.0 | 4.0 | 0.02 | 0.04 | 0.04 | 89 | 1008.7 |
| 20260504002953 | 49 | 124 | 3.0 | 4.0 | 0.07 | 0.04 | 0.04 | 88 | 1008.9 |
| 20260504002450 | 49 | 124 | 4.0 | 4.0 | 0.07 | 0.04 | 0.04 | 88 | 1008.9 |
| 20260504001948 | 49 | 105 | 2.0 | 4.0 | 0.02 | 0.03 | 0.03 | 87 | 1009.1 |
| 20260504001445 | 49 | 125 | 3.0 | 4.0 | 0.02 | 0.03 | 0.03 | 87 | 1009.1 |
| 20260504000942 | 49 | 128 | 3.0 | 4.0 | 0.00 | 0.02 | 0.02 | 87 | 1008.8 |
| 20260504000439 | 49 | 125 | 3.0 | 4.0 | 0.00 | 0.02 | 0.02 | 87 | 1009.1 |
| 20260503235936 | 49 | 123 | 3.0 | 4.0 | 0.00 | 0.02 | 0.02 | 86 | 1009.1 |
| 20260503235434 | 49 | 163 | 2.0 | 4.0 | 0.02 | 0.02 | 0.02 | 85 | 1009.2 |
| 20260503234931 | 49 | 170 | 2.0 | 4.0 | 0.07 | 0.02 | 0.02 | 85 | 1009.2 |
| 20260503234428 | 50 | 170 | 2.0 | 4.0 | 0.07 | 0.02 | 0.02 | 85 | 1009.4 |
| 20260503233926 | 50 | 190 | 3.0 | 4.0 | 0.07 | 0.02 | 0.02 | 83 | 1009.3 |
| 20260503233423 | 50 | 171 | 3.0 | 4.0 | 0.02 | 0.01 | 0.01 | 83 | 1009.2 |
| 20260503232919 | 50 | 211 | 3.0 | 5.0 | 0.02 | 0.00 | 0.00 | 82 | 1009.3 |
| 20260503232416 | 50 | 178 | 3.0 | 5.0 | 0.00 | 0.00 | 0.00 | 81 | 1009.1 |
| 20260503231914 | 50 | 181 | 3.0 | 6.0 | 0.00 | 0.00 | 0.00 | 80 | 1009.3 |
| 20260503231411 | 51 | 234 | 2.0 | 9.0 | 0.00 | 0.00 | 0.00 | 79 | 1009.4 |
| 20260503230907 | 51 | 287 | 4.0 | 13.0 | 0.00 | 0.00 | 0.00 | 76 | 1009.4 |
| 20260503230404 | 53 | 237 | 5.0 | 23.0 | 0.00 | 0.00 | 0.00 | 72 | 1009.4 |
| 20260503225901 | 53 | 152 | 4.0 | 7.0 | 0.00 | 0.00 | 0.00 | 64 | 1009.2 |
| 20260503225357 | 54 | 232 | 7.0 | 10.0 | 0.00 | 0.00 | 0.00 | 60 | 1008.9 |
| 20260503224854 | 54 | 187 | 4.0 | 4.0 | 0.00 | 0.00 | 0.00 | 60 | 1009.1 |
| 20260503224351 | 54 | 199 | 4.0 | 9.0 | 0.00 | 0.00 | 0.00 | 58 | 1009.1 |
| 20260503223849 | 54 | 154 | 4.0 | 9.0 | 0.00 | 0.00 | 0.00 | 57 | 1008.8 |
| 20260503223346 | 55 | 127 | 4.0 | 5.0 | 0.00 | 0.00 | 0.00 | 56 | 1008.7 |
| 20260503222841 | 55 | 137 | 4.0 | 7.0 | 0.00 | 0.00 | 0.00 | 55 | 1008.7 |
| 20260503222341 | 55 | 162 | 3.0 | 11.0 | 0.00 | 0.00 | 0.00 | 54 | 1008.5 |
| 20260503221838 | 55 | 149 | 5.0 | 6.0 | 0.00 | 0.00 | 0.00 | 54 | 1008.6 |
| 20260503221337 | 55 | 160 | 4.0 | 5.0 | 0.00 | 0.00 | 0.00 | 53 | 1008.6 |
| 20260503220832 | 55 | 163 | 3.0 | 10.0 | 0.00 | 0.00 | 0.00 | 52 | 1008.6 |
| 20260503220329 | 55 | 129 | 4.0 | 6.0 | 0.00 | 0.00 | 0.00 | 52 | 1008.6 |
| 20260503215826 | 55 | 142 | 4.0 | 5.0 | 0.00 | 0.00 | 0.00 | 52 | 1008.5 |
| 20260503215323 | 55 | 115 | 5.0 | 6.0 | 0.00 | 0.00 | 0.00 | 51 | 1008.5 |
| 20260503214821 | 55 | 115 | 3.0 | 5.0 | 0.00 | 0.00 | 0.00 | 51 | 1008.4 |
| 20260503214318 | 56 | 124 | 3.0 | 5.0 | 0.00 | 0.00 | 0.00 | 51 | 1008.6 |
| 20260503213815 | 56 | 142 | 3.0 | 7.0 | 0.00 | 0.00 | 0.00 | 52 | 1008.4 |
| 20260503213313 | 55 | 120 | 4.0 | 4.0 | 0.00 | 0.00 | 0.00 | 50 | 1008.3 |
| 20260503212809 | 55 | 127 | 5.0 | 5.0 | 0.00 | 0.00 | 0.00 | 50 | 1008.2 |
| 20260503212308 | 56 | 167 | 3.0 | 8.0 | 0.00 | 0.00 | 0.00 | 49 | 1008.5 |
| 20260503211805 | 56 | 129 | 5.0 | 6.0 | 0.00 | 0.00 | 0.00 | 50 | 1008.4 |
| 20260503211301 | 56 | 169 | 2.0 | 5.0 | 0.00 | 0.00 | 0.00 | 50 | 1008.5 |
| 20260503210801 | 56 | 145 | 3.0 | 6.0 | 0.00 | 0.00 | 0.00 | 49 | 1008.2 |
| 20260503210259 | 56 | 109 | 3.0 | 6.0 | 0.00 | 0.00 | 0.00 | 48 | 1008.4 |
| 20260503205754 | 56 | 110 | 4.0 | 5.0 | 0.00 | 0.00 | 0.00 | 49 | 1008.4 |
| 20260503205251 | 56 | 174 | 2.0 | 7.0 | 0.00 | 0.00 | 0.00 | 46 | 1008.5 |
| 20260503204747 | 57 | 167 | 3.0 | 6.0 | 0.00 | 0.00 | 0.00 | 46 | 1008.4 |
| 20260503204245 | 57 | 108 | 3.0 | 5.0 | 0.00 | 0.00 | 0.00 | 46 | 1008.6 |
| 20260503203742 | 57 | 96 | 3.0 | 7.0 | 0.00 | 0.00 | 0.00 | 45 | 1008.6 |
| 20260503203239 | 58 | 105 | 2.0 | 4.0 | 0.00 | 0.00 | 0.00 | 46 | 1008.6 |
| 20260503202736 | 58 | 109 | 3.0 | 5.0 | 0.00 | 0.00 | 0.00 | 45 | 1008.7 |
| 20260503202234 | 58 | 114 | 4.0 | 6.0 | 0.00 | 0.00 | 0.00 | 43 | 1008.8 |
| 20260503201732 | 58 | 163 | 3.0 | 6.0 | 0.00 | 0.00 | 0.00 | 44 | 1008.8 |
| 20260503201229 | 58 | 113 | 3.0 | 5.0 | 0.00 | 0.00 | 0.00 | 44 | 1008.8 |
| 20260503200726 | 58 | 124 | 4.0 | 9.0 | 0.00 | 0.00 | 0.00 | 42 | 1009.1 |
| 20260503200222 | 58 | 132 | 3.0 | 5.0 | 0.00 | 0.00 | 0.00 | 43 | 1009.2 |
| 20260503195719 | 58 | 123 | 3.0 | 7.0 | 0.00 | 0.00 | 0.00 | 41 | 1009.2 |
| 20260503195216 | 59 | 211 | 5.0 | 10.0 | 0.00 | 0.00 | 0.00 | 38 | 1009.2 |
| 20260503194713 | 59 | 159 | 4.0 | 5.0 | 0.00 | 0.00 | 0.00 | 40 | 1009.4 |
| 20260503194209 | 59 | 142 | 4.0 | 5.0 | 0.00 | 0.00 | 0.00 | 40 | 1009.5 |
| 20260503193705 | 59 | 238 | 7.0 | 7.0 | 0.00 | 0.00 | 0.00 | 38 | 1009.4 |
| 20260503193201 | 59 | 277 | 1.0 | 8.0 | 0.00 | 0.00 | 0.00 | 40 | 1009.7 |
| 20260503192657 | 59 | 111 | 5.0 | 12.0 | 0.00 | 0.00 | 0.00 | 43 | 1009.7 |
| 20260503192152 | 59 | 189 | 3.0 | 6.0 | 0.00 | 0.00 | 0.00 | 39 | 1009.8 |
| 20260503191649 | 59 | 238 | 12.0 | 16.0 | 0.00 | 0.00 | 0.00 | 39 | 1009.9 |
| 20260503191146 | 59 | 206 | 6.0 | 9.0 | 0.00 | 0.00 | 0.00 | 40 | 1010.1 |
| 20260503190643 | 58 | 203 | 4.0 | 5.0 | 0.00 | 0.00 | 0.00 | 42 | 1010.2 |
| 20260503190140 | 58 | 99 | 5.0 | 11.0 | 0.00 | 0.00 | 0.00 | 43 | 1010.3 |
| 20260503185637 | 58 | 153 | 4.0 | 13.0 | 0.00 | 0.00 | 0.00 | 41 | 1010.3 |
| 20260503185132 | 57 | 147 | 4.0 | 7.0 | 0.00 | 0.00 | 0.00 | 40 | 1010.4 |
| 20260503184627 | 57 | 125 | 5.0 | 7.0 | 0.00 | 0.00 | 0.00 | 42 | 1010.6 |
| 20260503184124 | 57 | 148 | 5.0 | 10.0 | 0.00 | 0.00 | 0.00 | 39 | 1010.5 |
| 20260503183620 | 56 | 122 | 5.0 | 13.0 | 0.00 | 0.00 | 0.00 | 41 | 1010.7 |
| 20260503183118 | 53 | 222 | 3.0 | 6.0 | 0.00 | 0.00 | 0.00 | 44 | 1010.7 |
| 20260503182616 | 49 | 209 | 3.0 | 11.0 | 0.00 | 0.00 | 0.00 | 53 | 1010.9 |
| 20260503182114 | 46 | 63 | 3.0 | 6.0 | 0.00 | 0.00 | 0.00 | 68 | 1010.9 |
| 20260503181611 | 46 | 10 | 5.0 | 6.0 | 0.00 | 0.00 | 0.00 | 70 | 1011.0 |
| 20260503181107 | 45 | 326 | 2.0 | 4.0 | 0.00 | 0.00 | 0.00 | 70 | 1011.1 |
| 20260503180605 | 45 | 20 | 2.0 | 3.0 | 0.00 | 0.00 | 0.00 | 72 | 1011.3 |
| 20260503175559 | 45 | 13 | 3.0 | 4.0 | 0.00 | 0.00 | 0.00 | 71 | 1011.3 |
| 20260503175056 | 45 | 23 | 4.0 | 4.0 | 0.00 | 0.00 | 0.00 | 71 | 1011.4 |
| 20260503174553 | 45 | 337 | 2.0 | 3.0 | 0.00 | 0.00 | 0.00 | 70 | 1011.5 |
| 20260503174049 | 45 | 23 | 1.0 | 3.0 | 0.00 | 0.00 | 0.00 | 70 | 1011.5 |
| 20260503173544 | 44 | 341 | 2.0 | 4.0 | 0.00 | 0.00 | 0.00 | 70 | 1011.6 |
| 20260503173041 | 44 | 304 | 4.0 | 6.0 | 0.00 | 0.00 | 0.00 | 74 | 1011.6 |
| 20260503172539 | 44 | 329 | 3.0 | 5.0 | 0.00 | 0.00 | 0.00 | 75 | 1011.7 |
| 20260503172036 | 44 | 326 | 3.0 | 6.0 | 0.00 | 0.00 | 0.00 | 74 | 1011.7 |
| 20260503171532 | 44 | 304 | 3.0 | 5.0 | 0.00 | 0.00 | 0.00 | 72 | 1011.9 |
| 20260503171030 | 44 | 302 | 5.0 | 6.0 | 0.00 | 0.00 | 0.00 | 74 | 1012.0 |
| 20260503170526 | 45 | 319 | 5.0 | 6.0 | 0.00 | 0.00 | 0.00 | 73 | 1011.8 |
| 20260503150918 | 46 | 339 | 7.0 | 9.0 | 0.00 | 0.00 | 0.00 | 73 | 1012.8 |
| 20260503150415 | 46 | 8 | 5.0 | 8.0 | 0.00 | 0.00 | 0.00 | 73 | 1012.8 |
| 20260503131308 | 49 | 96 | 3.0 | 5.0 | 0.00 | 0.00 | 0.00 | 55 | 1013.8 |
| 20260503130805 | 50 | 120 | 5.0 | 6.0 | 0.00 | 0.00 | 0.00 | 54 | 1013.9 |
| 20260503130303 | 49 | 101 | 4.0 | 5.0 | 0.00 | 0.00 | 0.00 | 57 | 1013.9 |
| 20260503110656 | 43 | 119 | 3.0 | 5.0 | 0.00 | 0.00 | 0.00 | 66 | 1013.9 |
| 20260503110154 | 42 | 102 | 2.0 | 5.0 | 0.00 | 0.00 | 0.00 | 68 | 1013.8 |
| 20260503100120 | 34 | 123 | 4.0 | 4.0 | 0.00 | 0.00 | 0.00 | 84 | 1013.7 |
| 20260503081510 | 36 | 102 | 3.0 | 4.0 | 0.00 | 0.00 | 0.00 | 80 | 1013.8 |
| 20260503081007 | 36 | 120 | 3.0 | 4.0 | 0.00 | 0.00 | 0.00 | 80 | 1013.9 |
| 20260503080503 | 36 | 115 | 3.0 | 4.0 | 0.00 | 0.00 | 0.00 | 80 | 1013.8 |
| 20260503072939 | 37 | 120 | 3.0 | 5.0 | 0.00 | 0.00 | 0.00 | 79 | 1013.7 |
| 20260503072437 | 37 | 115 | 2.0 | 5.0 | 0.00 | 0.00 | 0.00 | 80 | 1013.8 |
| 20260503071934 | 37 | 114 | 4.0 | 4.0 | 0.00 | 0.00 | 0.00 | 81 | 1013.8 |
| 20260503071430 | 37 | 117 | 4.0 | 5.0 | 0.00 | 0.00 | 0.00 | 81 | 1013.7 |
| 20260503070926 | 36 | 152 | 4.0 | 5.0 | 0.00 | 0.00 | 0.00 | 83 | 1013.7 |
| 20260503070424 | 36 | 127 | 4.0 | 4.0 | 0.00 | 0.00 | 0.00 | 83 | 1013.8 |
| 20260503054837 | 37 | 125 | 4.0 | 4.0 | 0.00 | 0.00 | 0.00 | 81 | 1014.0 |
| 20260503054333 | 37 | 134 | 3.0 | 4.0 | 0.00 | 0.00 | 0.00 | 81 | 1013.9 |
| 20260503053831 | 37 | 129 | 4.0 | 4.0 | 0.00 | 0.00 | 0.00 | 80 | 1014.2 |
| 20260503053329 | 38 | 119 | 3.0 | 4.0 | 0.00 | 0.00 | 0.00 | 80 | 1014.2 |
| 20260503052825 | 38 | 119 | 3.0 | 4.0 | 0.00 | 0.00 | 0.00 | 79 | 1014.3 |
| 20260503052322 | 38 | 122 | 4.0 | 4.0 | 0.00 | 0.00 | 0.00 | 79 | 1014.2 |
| 20260503051818 | 38 | 123 | 4.0 | 4.0 | 0.00 | 0.00 | 0.00 | 79 | 1014.4 |
| 20260503051315 | 38 | 130 | 4.0 | 4.0 | 0.00 | 0.00 | 0.00 | 79 | 1014.3 |
| 20260503050812 | 38 | 124 | 4.0 | 4.0 | 0.00 | 0.00 | 0.00 | 79 | 1014.3 |
| 20260503050308 | 39 | 118 | 3.0 | 4.0 | 0.00 | 0.00 | 0.00 | 78 | 1014.3 |
| 20260503045806 | 39 | 110 | 3.0 | 4.0 | 0.00 | 0.00 | 0.00 | 78 | 1014.6 |
| 20260503045305 | 39 | 109 | 3.0 | 5.0 | 0.00 | 0.00 | 0.00 | 77 | 1014.3 |
| 20260503044759 | 39 | 119 | 2.0 | 4.0 | 0.00 | 0.00 | 0.00 | 77 | 1014.4 |
| 20260503044256 | 39 | 121 | 3.0 | 4.0 | 0.00 | 0.00 | 0.00 | 76 | 1014.5 |
| 20260503043754 | 39 | 122 | 4.0 | 4.0 | 0.00 | 0.00 | 0.00 | 76 | 1014.6 |
| 20260503043251 | 40 | 109 | 4.0 | 4.0 | 0.00 | 0.00 | 0.00 | 74 | 1014.7 |
| 20260503042746 | 40 | 108 | 3.0 | 4.0 | 0.00 | 0.00 | 0.00 | 73 | 1014.8 |
| 20260503042244 | 40 | 108 | 3.0 | 4.0 | 0.00 | 0.00 | 0.00 | 73 | 1014.7 |
| 20260503041739 | 41 | 115 | 3.0 | 4.0 | 0.00 | 0.00 | 0.00 | 71 | 1014.6 |
| 20260503041237 | 41 | 122 | 4.0 | 4.0 | 0.00 | 0.00 | 0.00 | 70 | 1014.7 |
| 20260503040735 | 41 | 134 | 3.0 | 4.0 | 0.00 | 0.00 | 0.00 | 69 | 1014.7 |
| 20260503040232 | 41 | 121 | 4.0 | 4.0 | 0.00 | 0.00 | 0.00 | 69 | 1014.7 |
| 20260503035729 | 42 | 124 | 3.0 | 4.0 | 0.00 | 0.00 | 0.00 | 68 | 1014.5 |
| 20260503035227 | 42 | 155 | 3.0 | 4.0 | 0.00 | 0.00 | 0.00 | 68 | 1014.7 |
| 20260503034724 | 42 | 120 | 4.0 | 4.0 | 0.00 | 0.00 | 0.00 | 68 | 1014.7 |